Wind_Speed
8 8 8 9 8 8 8 8 9 10 10 11 11 11 11 11 10 10 9 8 7 7 6 6 5 5 5 5 5 5 5 5 5 5 5 5 5 6 6 7 8 8 8
7 8 8 9 8 8 8 8 8 9 10 10 11 10 10 10 9 9 8 8 7 7 6 6 5 5 5 5 5 5 5 5 5 5 5 5 5 6 6 7 7 8 8
6 8 8 9 9 9 8 8 8 9 9 10 10 9 9 9 9 8 8 8 7 7 6 6 5 5 5 5 5 5 5 5 5 5 5 5 5 5 6 6 7 7 7
5 7 8 9 9 9 9 8 8 8 9 9 9 9 8 8 8 8 8 7 7 6 6 5 5 5 4 4 5 5 5 5 5 5 5 4 5 5 5 6 7 7 7
5 6 8 9 9 9 9 8 8 8 8 8 8 8 8 8 8 8 7 7 7 6 6 5 5 4 4 4 5 4 4 4 4 4 5 4 4 4 5 6 6 7 7
3 6 7 9 9 9 9 8 7 8 8 7 8 7 7 7 7 7 7 7 6 6 5 5 5 4 4 4 4 4 4 4 5 5 5 5 4 4 5 6 6 7 7
2 5 7 9 9 10 9 9 8 8 8 7 7 7 6 6 6 7 6 6 6 5 5 5 4 4 4 4 4 4 4 4 4 5 5 5 5 5 5 6 6 6 6
2 4 7 9 10 10 10 9 9 9 8 8 7 6 6 5 6 6 6 5 5 4 4 4 4 4 3 3 3 3 3 4 4 4 5 5 5 5 5 5 5 5 6
3 4 6 9 10 11 11 10 10 10 9 9 7 6 6 5 5 5 5 4 4 4 4 4 4 3 3 2 2 3 3 3 4 4 5 5 5 5 5 5 4 5 5
4 5 6 9 10 11 11 11 11 10 10 9 8 7 6 5 5 4 4 4 3 3 3 3 3 3 2 2 2 2 2 3 4 4 5 5 5 5 5 5 4 5 5
5 5 6 8 10 11 12 12 12 12 11 10 9 8 7 5 5 4 4 3 3 3 3 3 2 2 2 2 2 2 2 3 3 4 4 5 5 5 5 5 4 5 5
6 6 7 8 10 11 12 12 12 13 12 11 10 9 8 6 5 4 4 3 3 3 2 2 2 2 2 2 2 2 2 2 3 3 4 4 5 5 5 5 5 5 5
7 6 7 9 11 12 12 13 13 14 13 12 11 10 9 7 6 5 4 3 3 3 2 2 2 2 2 2 1 1 2 3 3 3 4 4 4 5 5 5 5 5 6
8 6 8 10 11 13 14 14 15 14 14 14 12 11 9 8 6 5 5 4 3 3 2 2 2 2 2 2 2 2 2 3 3 3 4 4 4 5 5 6 6 6 7
8 8 8 9 11 13 15 16 16 16 15 15 14 13 11 9 8 7 6 5 4 3 2 2 2 2 2 2 3 3 3 3 3 3 4 4 4 5 6 6 6 7 8
9 9 8 10 12 12 15 17 17 16 16 16 15 14 13 11 10 8 7 6 5 4 3 2 2 2 2 3 3 3 3 3 3 3 4 4 5 5 5 6 6 7 8
10 9 8 7 9 12 15 17 17 17 17 17 17 15 14 13 11 10 8 7 6 5 4 3 3 3 3 3 3 3 3 3 4 4 4 5 5 5 5 6 7 7 8
11 10 7 6 8 10 13 16 17 18 17 18 18 16 15 14 13 11 10 8 7 6 5 4 3 3 3 3 3 4 4 4 4 4 4 5 5 5 5 6 7 7 7
11 10 7 7 8 9 11 14 15 17 18 18 18 18 17 16 15 13 11 10 9 8 6 5 4 4 3 3 3 3 4 4 4 4 4 4 5 4 5 5 6 7 7
11 10 8 7 7 9 11 13 14 17 18 19 19 18 18 17 16 15 13 12 10 9 7 6 5 4 4 3 3 3 4 4 4 4 4 4 4 4 4 5 5 6 6
10 10 9 8 8 9 10 13 13 15 18 19 19 19 18 17 16 16 15 13 12 10 9 8 7 6 5 5 4 4 4 4 4 4 4 5 5 5 5 5 4 5 5
10 9 9 8 7 7 9 10 12 13 15 17 18 18 18 17 17 16 16 15 13 12 10 9 8 8 7 6 6 5 5 4 3 4 4 4 4 4 5 5 5 5 6
10 10 9 7 7 7 8 9 11 12 14 15 16 17 18 18 18 16 16 16 14 13 11 10 9 9 9 8 7 6 6 5 5 4 4 4 5 5 5 5 5 5 6
10 10 9 8 7 7 7 8 10 12 13 14 15 17 17 18 18 18 17 16 15 14 13 11 11 11 10 10 9 8 8 7 7 6 6 6 6 6 6 7 7 7 8
10 10 9 9 8 7 7 8 10 11 13 14 15 16 17 18 18 18 18 17 16 16 14 13 12 12 12 12 12 11 10 9 9 9 8 8 8 8 8 8 9 9 10
9 8 8 8 7 7 7 8 10 11 12 13 14 16 17 18 19 20 19 18 17 17 16 15 14 14 14 14 14 13 12 12 12 11 11 11 11 11 11 11 11 12 12
Wind_Direction
148 147 151 153 154 155 153 150 143 138 129 122 116 110 105 102 99 98 95 95 94 94 98 102 106 108 111 111 113 115 119 117 118 123 132 136 136 136 131 131 133 129 131
163 162 162 164 164 163 162 158 152 142 133 126 118 113 108 102 98 96 95 95 93 95 99 102 105 109 115 117 122 126 131 125 127 129 128 133 138 139 132 130 131 133 136
169 177 175 176 176 173 173 171 163 151 141 130 121 114 109 104 99 96 95 96 95 99 103 105 107 111 118 121 126 129 131 135 132 129 131 138 140 143 136 134 137 139 141
170 182 183 184 183 180 177 174 169 157 145 135 126 118 111 106 101 97 96 97 98 102 107 109 110 114 119 125 130 132 136 138 140 138 142 147 148 147 141 143 146 148 146
183 190 192 194 189 186 183 179 173 165 155 144 132 124 118 111 104 99 99 99 100 104 110 113 111 114 117 124 133 139 142 144 150 148 151 156 155 154 150 153 155 153 153
202 200 200 195 192 191 189 187 182 173 165 154 139 130 124 118 110 104 102 101 101 105 112 115 115 117 119 123 131 140 146 151 157 157 157 159 161 158 159 160 159 159 159
224 211 206 201 197 195 191 188 185 176 168 160 147 139 133 127 119 114 107 104 104 108 112 113 114 117 118 121 128 139 146 159 163 165 166 167 169 164 165 166 163 163 167
268 226 214 209 206 202 196 193 189 183 175 167 157 150 144 137 131 125 114 108 109 112 111 112 113 114 114 121 130 142 149 163 168 171 173 176 180 175 174 176 172 172 177
281 250 221 212 210 208 204 200 195 189 186 180 174 167 157 149 141 133 122 114 114 116 114 115 116 118 115 117 129 141 153 168 174 178 182 183 185 184 186 188 185 185 189
299 259 231 216 212 211 209 206 201 196 193 189 184 178 172 165 155 145 139 126 122 122 124 123 122 125 126 124 132 145 157 166 173 182 188 191 194 193 193 194 197 199 197
318 271 244 224 215 210 209 209 206 203 200 195 190 186 183 180 173 164 152 139 135 131 133 132 126 136 134 137 144 148 156 169 180 189 194 198 202 202 203 203 210 209 202
321 284 254 229 218 215 212 212 211 209 206 200 196 194 192 190 189 185 170 156 148 142 142 137 137 148 153 154 161 176 184 183 186 197 204 208 210 211 212 215 220 217 211
323 289 259 237 223 218 216 216 213 213 211 207 203 200 197 192 192 190 182 176 168 157 150 140 140 154 170 177 177 189 199 196 195 207 215 220 222 226 225 228 233 227 225
321 297 269 245 232 223 220 218 216 216 215 213 210 207 203 199 197 196 191 188 182 176 166 157 158 173 191 201 212 212 215 219 218 223 226 231 232 236 236 239 237 234 232
321 303 274 256 241 230 222 221 219 218 218 217 215 211 208 206 204 200 198 200 197 191 190 189 190 195 199 207 219 225 227 228 230 236 238 238 239 241 241 244 241 238 240
323 307 286 267 247 235 225 224 221 221 221 218 217 214 212 211 209 204 203 207 209 212 220 222 224 217 209 214 226 233 237 240 239 238 241 245 244 246 248 252 249 243 242
322 313 301 272 247 238 231 228 223 221 222 221 219 217 214 213 212 209 208 210 216 219 229 237 240 236 227 220 229 239 240 241 243 237 238 242 247 251 255 259 258 252 247
324 317 309 271 250 247 237 230 228 223 223 222 220 218 216 214 214 213 214 215 220 221 225 234 238 233 224 221 228 236 237 242 249 249 242 245 251 254 256 258 256 253 253
327 321 315 288 264 257 241 233 231 226 224 224 221 220 220 218 218 218 218 219 223 225 227 228 233 227 221 220 225 231 235 242 250 254 251 251 252 254 258 257 250 248 251
326 322 315 300 278 264 246 236 233 229 224 222 221 222 223 221 221 221 221 222 223 224 226 228 231 229 227 223 223 225 232 242 249 251 255 252 248 250 254 253 249 249 250
327 324 319 303 286 268 247 237 233 229 223 221 220 223 224 224 221 220 221 222 222 224 228 230 229 231 235 232 230 230 234 244 251 253 254 252 247 246 249 246 250 248 250
321 321 319 310 298 268 253 244 235 228 222 221 223 222 223 223 222 222 223 223 224 225 227 229 231 235 237 233 231 234 239 247 252 250 251 245 241 244 241 243 252 261 265
315 315 315 307 301 279 257 245 231 225 223 223 220 223 225 225 224 225 225 224 225 225 227 231 234 235 237 233 232 234 239 244 249 252 252 244 243 247 245 251 254 259 267
311 311 309 300 293 280 261 241 230 227 227 226 224 224 227 228 225 224 223 223 225 227 229 234 238 239 237 235 236 237 240 244 247 251 254 252 249 251 253 255 256 259 265
308 305 302 298 287 275 250 236 228 233 234 229 228 229 231 232 230 227 225 226 228 231 234 236 239 240 239 238 239 241 241 245 249 252 254 254 253 254 258 261 263 265 267
313 307 302 295 283 275 250 238 233 238 238 233 231 230 231 232 231 229 228 229 232 235 237 237 239 240 241 242 242 244 244 247 251 252 253 254 256 258 261 264 267 269 272
Height
5887 5888 5889 5890 5891 5891 5892 5893 5893 5894 5893 5894 5894 5894 5894 5894 5894 5894 5894 5894 5894 5894 5894 5895 5895 5895 5895 5895 5895 5895 5895 5895 5895 5895 5895 5895 5895 5895 5895 5895 5896 5896 5896
5888 5888 5889 5890 5891 5892 5892 5893 5894 5894 5894 5894 5894 5894 5894 5894 5894 5894 5894 5894 5894 5895 5895 5895 5895 5895 5895 5896 5895 5895 5895 5896 5896 5896 5895 5896 5896 5896 5896 5896 5897 5897 5897
5888 5888 5889 5890 5891 5892 5892 5893 5894 5894 5894 5894 5894 5894 5894 5895 5895 5895 5895 5895 5895 5895 5895 5895 5896 5896 5896 5896 5896 5896 5896 5896 5896 5896 5896 5896 5897 5897 5897 5897 5898 5898 5898
5887 5888 5889 5890 5891 5892 5892 5893 5894 5894 5894 5894 5894 5895 5895 5895 5895 5895 5895 5895 5895 5895 5896 5896 5896 5896 5896 5896 5896 5896 5896 5896 5897 5897 5897 5897 5897 5898 5898 5898 5899 5899 5899
5887 5888 5888 5889 5890 5891 5892 5893 5894 5894 5894 5894 5895 5895 5895 5895 5895 5895 5895 5895 5895 5896 5896 5896 5896 5896 5896 5896 5896 5896 5896 5897 5897 5897 5897 5897 5898 5898 5898 5899 5899 5900 5900
5886 5886 5887 5888 5889 5891 5892 5893 5893 5894 5894 5895 5895 5895 5895 5896 5896 5896 5896 5896 5896 5896 5896 5896 5896 5896 5896 5896 5896 5896 5897 5897 5897 5897 5898 5898 5898 5898 5899 5899 5900 5900 5901
5885 5885 5886 5887 5888 5890 5891 5892 5893 5893 5894 5895 5895 5895 5896 5896 5896 5896 5896 5896 5896 5896 5896 5896 5896 5896 5896 5896 5896 5897 5897 5897 5897 5898 5898 5898 5898 5899 5899 5900 5900 5900 5901
5884 5884 5885 5886 5887 5888 5890 5891 5892 5893 5894 5895 5895 5895 5895 5896 5896 5896 5896 5896 5896 5896 5896 5896 5896 5896 5896 5896 5897 5897 5897 5897 5897 5898 5898 5898 5899 5899 5900 5900 5900 5901 5901
5882 5883 5883 5884 5886 5887 5888 5890 5891 5892 5893 5894 5895 5895 5895 5896 5896 5896 5896 5896 5896 5896 5897 5897 5896 5897 5897 5897 5897 5897 5897 5897 5897 5898 5898 5899 5899 5900 5900 5900 5900 5901 5902
5881 5881 5882 5882 5884 5885 5887 5888 5890 5891 5892 5893 5894 5894 5895 5895 5895 5895 5896 5896 5896 5896 5896 5896 5897 5897 5897 5897 5897 5897 5897 5897 5898 5898 5898 5899 5899 5900 5900 5900 5900 5901 5901
5880 5880 5880 5881 5882 5883 5885 5887 5888 5889 5891 5892 5893 5893 5894 5895 5895 5895 5895 5895 5896 5896 5896 5896 5896 5897 5897 5897 5897 5897 5898 5898 5898 5898 5898 5899 5899 5899 5900 5900 5900 5901 5901
5879 5879 5879 5879 5880 5882 5883 5885 5886 5888 5889 5890 5892 5892 5893 5894 5894 5895 5895 5895 5895 5896 5896 5896 5896 5896 5896 5897 5897 5897 5898 5898 5898 5898 5898 5898 5899 5899 5899 5900 5900 5900 5901
5877 5877 5877 5877 5878 5879 5881 5883 5884 5886 5888 5889 5890 5891 5892 5893 5893 5894 5894 5895 5895 5895 5895 5896 5896 5896 5896 5897 5897 5897 5897 5897 5897 5898 5898 5898 5898 5899 5899 5899 5900 5900 5900
5876 5875 5875 5875 5876 5877 5878 5880 5882 5884 5886 5887 5889 5890 5891 5892 5893 5893 5894 5894 5895 5895 5895 5895 5896 5896 5896 5896 5897 5897 5897 5897 5897 5897 5897 5898 5898 5898 5898 5899 5899 5899 5900
5874 5873 5872 5872 5873 5874 5876 5878 5880 5882 5884 5885 5887 5888 5890 5891 5892 5893 5893 5894 5894 5894 5895 5895 5895 5895 5896 5896 5896 5896 5897 5897 5897 5897 5897 5897 5897 5897 5897 5898 5898 5898 5899
5872 5871 5869 5868 5869 5872 5873 5875 5877 5879 5881 5883 5885 5886 5888 5889 5891 5892 5893 5893 5894 5894 5894 5895 5895 5895 5895 5895 5895 5896 5896 5896 5896 5896 5896 5896 5896 5896 5897 5897 5897 5897 5898
5870 5869 5868 5867 5867 5869 5870 5872 5874 5876 5878 5880 5882 5884 5886 5888 5889 5890 5892 5892 5893 5893 5894 5894 5894 5894 5894 5895 5895 5895 5895 5895 5895 5895 5895 5895 5895 5895 5896 5896 5896 5896 5896
5869 5867 5866 5865 5866 5867 5868 5869 5871 5873 5875 5878 5880 5882 5884 5886 5888 5889 5890 5891 5892 5892 5893 5893 5893 5893 5894 5894 5894 5894 5894 5894 5894 5894 5894 5894 5894 5894 5894 5895 5895 5895 5895
5867 5865 5864 5864 5864 5864 5865 5867 5868 5870 5873 5875 5877 5880 5882 5884 5886 5887 5889 5890 5891 5891 5892 5892 5892 5892 5893 5893 5893 5894 5894 5894 5894 5894 5893 5893 5893 5893 5893 5893 5893 5894 5894
5866 5864 5863 5862 5862 5862 5863 5864 5865 5867 5870 5872 5875 5878 5880 5882 5883 5885 5887 5888 5889 5890 5891 5891 5891 5892 5892 5892 5892 5893 5893 5893 5893 5893 5893 5892 5892 5893 5893 5892 5892 5893 5893
5864 5863 5861 5860 5860 5860 5860 5862 5863 5865 5867 5869 5872 5875 5877 5879 5881 5883 5885 5886 5887 5888 5889 5889 5890 5891 5891 5891 5892 5892 5892 5892 5892 5892 5892 5891 5892 5892 5892 5892 5892 5892 5891
5863 5861 5860 5859 5858 5858 5858 5859 5861 5863 5864 5867 5869 5872 5875 5877 5878 5880 5882 5884 5885 5886 5887 5888 5889 5890 5890 5891 5891 5891 5891 5892 5891 5891 5891 5891 5891 5891 5891 5891 5891 5891 5891
5861 5860 5858 5857 5856 5856 5856 5857 5859 5861 5863 5865 5867 5870 5872 5874 5876 5877 5880 5881 5883 5884 5885 5886 5887 5888 5889 5889 5890 5890 5890 5891 5891 5891 5890 5890 5890 5890 5890 5890 5890 5890 5889
5859 5858 5856 5855 5854 5854 5854 5855 5856 5858 5860 5862 5864 5867 5869 5871 5873 5875 5877 5879 5880 5882 5883 5884 5885 5886 5887 5888 5888 5888 5889 5889 5889 5890 5890 5889 5889 5889 5889 5889 5889 5889 5888
5857 5856 5855 5853 5852 5851 5851 5853 5854 5856 5858 5860 5862 5864 5866 5868 5870 5872 5874 5876 5878 5879 5881 5881 5882 5883 5885 5886 5886 5887 5887 5887 5887 5888 5888 5888 5888 5888 5888 5888 5887 5887 5887
5855 5854 5853 5852 5851 5850 5850 5851 5852 5854 5855 5857 5858 5860 5862 5864 5866 5869 5871 5872 5874 5876 5877 5879 5880 5881 5882 5883 5884 5884 5885 5885 5885 5886 5886 5886 5886 5886 5886 5885 5885 5885 5884